Location: Düngen
(52.0952°N, 10.0219°E)
Time: 09:08:11
(UTC+00:00)

USA 281 - Visible Passes

Search period start: 09 June 2026 00:00
Search period end: 19 June 2026 00:00
Orbit: 1079 x 1080 km, 106.0° (Epoch: 5 January)

Date Brightness Start Highest point End Pass type
(mag) Time Alt. Az. Time Alt. Az. Time Alt. Az.
9 Jun 5.2 01:11:46 10° ESE 01:17:26 32° NE 01:23:07 10° NNW visible
9 Jun 6.3 21:01:03 10° N 21:04:08 14° NNW 21:07:13 10° NW visible
9 Jun 6.4 22:44:13 10° NNE 22:46:12 11° N 22:48:10 10° N visible
10 Jun 5.9 00:23:57 10° ENE 00:28:31 21° NNE 00:33:06 10° NNW visible
10 Jun 4.1 02:05:31 10° SE 02:11:53 56° NE 02:18:18 10° NNW visible
10 Jun 6.5 21:55:55 10° NNE 21:57:49 11° N 21:59:42 10° NNW visible
10 Jun 6.2 23:36:39 10° NE 23:39:53 14° NNE 23:43:07 10° N visible
11 Jun 5.2 01:16:59 10° ESE 01:22:40 32° NE 01:28:21 10° NNW visible
11 Jun 6.3 21:06:17 10° N 21:09:21 14° NNW 21:12:26 10° NW visible
11 Jun 6.4 22:49:25 10° NNE 22:51:25 11° N 22:53:24 10° N visible
12 Jun 5.9 00:29:10 10° ENE 00:33:45 21° NNE 00:38:21 10° NNW visible
12 Jun 4.1 02:10:44 10° SE 02:17:07 57° NE 02:23:32 10° NNW visible
12 Jun 6.5 22:01:09 10° NNE 22:03:02 11° N 22:04:55 10° NNW visible
12 Jun 6.2 23:41:52 10° NE 23:45:06 14° NNE 23:48:21 10° N visible
13 Jun 5.2 01:22:13 10° ESE 01:27:54 33° NE 01:33:36 10° NNW visible
13 Jun 6.3 21:11:31 10° N 21:14:36 14° NNW 21:17:39 10° NW visible
13 Jun 6.4 22:54:38 10° NNE 22:56:39 12° N 22:58:39 10° N visible
14 Jun 5.9 00:34:23 10° ENE 00:38:59 21° NNE 00:43:35 10° NNW visible
14 Jun 6.5 22:06:23 10° NNE 22:08:16 11° N 22:10:08 10° NNW visible
14 Jun 6.2 23:47:05 10° NE 23:50:20 14° NNE 23:53:35 10° N visible
15 Jun 5.2 01:27:26 10° ESE 01:33:07 33° NE 01:38:49 10° NNW visible
15 Jun 6.3 21:16:46 10° N 21:19:49 14° NNW 21:22:52 10° NW visible
15 Jun 6.5 22:59:52 10° NNE 23:01:52 12° N 23:03:53 10° N visible
16 Jun 5.9 00:39:37 10° ENE 00:44:12 21° NNE 00:48:49 10° NNW visible
16 Jun 6.1 20:26:47 10° NNE 20:31:12 19° NNW 20:35:37 10° WNW visible
16 Jun 6.5 22:11:37 10° NNE 22:13:29 11° N 22:15:21 10° NNW visible
16 Jun 6.2 23:52:18 10° NE 23:55:34 14° NNE 23:58:49 10° N visible
17 Jun 5.2 01:32:39 10° ESE 01:38:21 33° NE 01:44:04 10° NNW visible
17 Jun 6.3 21:22:00 10° N 21:25:02 14° NNW 21:28:05 10° NW visible
17 Jun 6.5 23:05:05 10° NNE 23:07:06 12° N 23:09:06 10° N visible
18 Jun 6.0 00:44:49 10° ENE 00:49:26 21° NNE 00:54:03 10° NNW visible
18 Jun 6.1 20:32:01 10° NNE 20:36:25 19° NNW 20:40:50 10° WNW visible
18 Jun 6.6 22:16:51 10° NNE 22:18:43 11° N 22:20:34 10° NNW visible
